World > North America > United States > Georgia

Hazlehurst, Georgia Regional Weather

Lat: 31.87N, Lon: 82.6W
Wx Zone: GAZ133Web Search

Helpful Tip: Type the letters wx in the search engine next time you need to find us.

Feedback
Hazlehurst Weather Map
UTC Time: 1/26/2021, 06:39
Your Time:

Hazlehurst, GA Regional Weather

Expires:202101260700;;503368
ASUS42 KFFC 260610
RWRGA 
WEATHER ROUNDUP FOR GEORGIA
NATIONAL WEATHER SERVICE PEACHTREE CITY GA
100 AM EST TUE JAN 26 2021

NOTE: "FAIR" INDICATES FEW OR NO CLOUDS BELOW 12,000 FEET WITH NO
SIGNIFICANT WEATHER AND/OR OBSTRUCTIONS TO VISIBILITY. 

* = USE WITH CAUTION. THE STATIONS MARKED WITH AN ASTERISK MAY NOT
REPORT WEATHER SUCH AS PRECIPITATION, FOG, OR THUNDER AND ARE NOT 
QUALITY CONTROLLED BY NWS.

THE REMARK "TC" DENOTES TEMPERATURE READING IN DEGREES CELSIUS.


GAZ099>101-110>166-260700-
SOUTH GEORGIA
  
CITY           SKY/WX    TMP DP  RH WIND       PRES   REMARKS
SAVANNAH       CLEAR     68  60  75 SW12      29.92F                  
6HR MIN TEMP:  65; 6HR MAX TEMP:  70;                                

VALDOSTA       CLOUDY    67  63  87 S6        29.95F                  
6HR MIN TEMP:  65; 6HR MAX TEMP:  69;                                

ALMA           PTCLDY    64  60  87 S9        29.92F                  
6HR MIN TEMP:  63; 6HR MAX TEMP:  71;                                

ST SIMONS      PTCLDY    65  63  93 SW7       29.96F                  
6HR MIN TEMP:  59; 6HR MAX TEMP:  65;                                

FT STEWART     CLEAR     65  61  87 S8        29.91                   
ALBANY         CLOUDY    69  65  86 S12G24    29.90F                  
MOODY AFB      CLOUDY    66  63  90 S10       29.93F                  
BRUNSWICK      PTCLDY    63  61  94 SW10      29.96F                  

  
CITY           SKY/WX    TMP DP  RH WIND       PRES   REMARKS
BAINBRIDGE*    CLOUDY    69  66  91 S13       29.90F                  
MOULTRIE*      CLOUDY    64  63  94 S7        29.93F                  
VIDALIA*       CLEAR     64  59  82 S9        29.91F                  
WAYCROSS*      PTCLDY    64  59  84 SW7       29.95F                  
DOUGLAS*       CLOUDY    65  63  93 SW12G17   29.94F                  
$$
  

SKY/WX - Weather  TMP - Temperature  DP - Dew Point  RH - Relative Humidity
WIND - Wind Direction/Speed PRES - Barometric Pressure VSB - Visibility
WCI - Wind Chill Index E13G22 Wind - East Wind 13 mph/Gusts of 22 mph
Hazlehurst, GA web page url QR Code Scan this code with your camera.